TimeCDT,TemperatureF,Dew PointF,Humidity,Sea Level PressureIn,VisibilityMPH,Wind Direction,Wind SpeedMPH,Gust SpeedMPH,PrecipitationIn,Events,Conditions,WindDirDegrees,DateUTC
12:51 AM,60.1,46.9,62,29.92,10.0,NE,8.1,-,0.00,,Overcast,50,2013-06-06 05:51:00
1:51 AM,60.1,46.9,62,29.91,10.0,NNE,5.8,-,N/A,,Overcast,30,2013-06-06 06:51:00
2:51 AM,61.0,46.9,60,29.89,10.0,NE,6.9,-,0.00,Rain,Light Rain,40,2013-06-06 07:51:00
3:51 AM,59.0,48.9,69,29.87,10.0,NE,8.1,-,0.00,Rain,Light Rain,50,2013-06-06 08:51:00
4:51 AM,59.0,50.0,72,29.87,10.0,NNE,6.9,-,0.00,Rain,Light Rain,30,2013-06-06 09:51:00
5:51 AM,60.1,46.9,62,29.88,10.0,ENE,8.1,-,0.00,,Overcast,60,2013-06-06 10:51:00
6:51 AM,61.0,46.0,58,29.88,10.0,East,6.9,-,0.00,Rain,Light Rain,80,2013-06-06 11:51:00
7:51 AM,62.1,48.0,60,29.88,10.0,ENE,6.9,-,0.00,,Overcast,70,2013-06-06 12:51:00
8:51 AM,62.1,48.9,62,29.89,10.0,NE,10.4,-,N/A,,Overcast,50,2013-06-06 13:51:00
9:51 AM,61.0,51.1,70,29.90,10.0,North,6.9,-,0.00,Rain,Light Rain,360,2013-06-06 14:51:00
10:51 AM,60.1,53.1,78,29.91,10.0,North,6.9,-,0.02,Rain,Light Rain,10,2013-06-06 15:51:00
11:51 AM,59.0,53.1,81,29.90,10.0,NE,11.5,-,0.01,Rain,Light Rain,40,2013-06-06 16:51:00
12:51 PM,60.1,52.0,75,29.89,10.0,NNE,12.7,-,0.03,,Mostly Cloudy,30,2013-06-06 17:51:00
1:51 PM,61.0,51.1,70,29.88,10.0,NNE,12.7,-,N/A,,Mostly Cloudy,20,2013-06-06 18:51:00
2:51 PM,64.0,50.0,60,29.90,10.0,NNE,10.4,-,N/A,,Mostly Cloudy,20,2013-06-06 19:51:00
3:51 PM,64.0,46.9,54,29.89,10.0,NNE,15.0,-,N/A,,Scattered Clouds,20,2013-06-06 20:51:00
4:51 PM,64.9,46.9,52,29.90,10.0,NE,11.5,-,N/A,,Mostly Cloudy,50,2013-06-06 21:51:00
5:51 PM,63.0,46.0,54,29.89,10.0,NE,15.0,-,N/A,,Scattered Clouds,40,2013-06-06 22:51:00
6:51 PM,61.0,46.0,58,29.90,10.0,North,11.5,-,N/A,,Partly Cloudy,10,2013-06-06 23:51:00
7:51 PM,57.0,45.0,64,29.92,10.0,NNE,13.8,-,N/A,,Scattered Clouds,30,2013-06-07 00:51:00
8:51 PM,55.0,46.0,72,29.91,10.0,NNE,10.4,-,N/A,,Scattered Clouds,20,2013-06-07 01:51:00
9:51 PM,55.0,44.1,67,29.91,10.0,NNE,11.5,-,N/A,,Scattered Clouds,30,2013-06-07 02:51:00
10:51 PM,55.0,44.1,67,29.92,10.0,North,6.9,-,N/A,,Mostly Cloudy,350,2013-06-07 03:51:00
11:51 PM,54.0,45.0,72,29.91,10.0,North,6.9,-,N/A,,Mostly Cloudy,350,2013-06-07 04:51:00